TVF88MU LFPO-LGIR

Flight info

Callsign TVF88MU
Flight time N/A
Altitude 23000
Route BUBLI DCT LUVAL/N0441F350 DCT SHARA DCT DEVDI DCT RIPUS DCT RESIA DCT BORMI DCT ROTAR DCT MINTU DCT SPL DCT PINDO/N0442F370 DCT KEA UL607 GIVIS T514 XAVIS
Aircraft B738/M-SDFGHIJ1RWXY/LB1

Departure

Time N/A
Airport Paris-Orly Airport (LFPO)

Arrival

Time 2026-05-04 12:44
Airport Heraklion International Nikos Kazantzakis Airport (LGIR)
Time Latitude Longitude Altitude Speed Heading
2026-05-04 11:26 42.31901 18.20945 37162 ft 477 kts 129°
2026-05-04 11:27 42.16705 18.44639 37179 ft 478 kts 129°
2026-05-04 11:28 42.12746 18.50780 37164 ft 479 kts 129°
2026-05-04 11:28 42.08383 18.57534 37152 ft 480 kts 129°
2026-05-04 11:29 42.03998 18.64306 37160 ft 480 kts 129°
2026-05-04 11:29 41.99606 18.71074 37158 ft 480 kts 129°
2026-05-04 11:33 41.68638 19.18361 37153 ft 483 kts 129°
2026-05-04 11:33 41.64940 19.23957 37149 ft 483 kts 129°
2026-05-04 11:34 41.59760 19.31778 37147 ft 483 kts 129°
2026-05-04 11:34 41.55298 19.38499 37136 ft 483 kts 129°
2026-05-04 11:35 41.51558 19.44121 37150 ft 483 kts 129°
2026-05-04 11:35 41.47091 19.50823 37152 ft 484 kts 129°
2026-05-04 11:36 41.42615 19.57522 37146 ft 484 kts 129°
2026-05-04 11:36 41.38131 19.64219 37143 ft 484 kts 129°
2026-05-04 11:37 41.33642 19.70907 37130 ft 485 kts 129°
2026-05-04 11:37 41.29145 19.77592 37132 ft 485 kts 129°
2026-05-04 11:38 41.24642 19.84271 37141 ft 485 kts 129°
2026-05-04 11:38 41.20162 19.90901 37128 ft 485 kts 129°
2026-05-04 11:39 41.15650 19.97565 37128 ft 485 kts 129°
2026-05-04 11:41 40.99848 20.20785 37130 ft 485 kts 129°
2026-05-04 11:41 40.95322 20.27402 37112 ft 484 kts 129°
2026-05-04 11:42 40.90801 20.33997 37130 ft 484 kts 129°
2026-05-04 11:42 40.86266 20.40600 37101 ft 486 kts 129°
2026-05-04 11:43 40.81727 20.47192 37110 ft 484 kts 129°
2026-05-04 11:43 40.77196 20.53759 37129 ft 483 kts 129°
2026-05-04 11:44 40.72670 20.60304 37106 ft 483 kts 129°
2026-05-04 11:44 40.68137 20.66847 37120 ft 482 kts 129°
2026-05-04 11:45 40.63616 20.73357 37121 ft 481 kts 129°
2026-05-04 11:45 40.59096 20.79851 37129 ft 481 kts 129°
2026-05-04 11:46 40.54570 20.86343 37123 ft 482 kts 129°
2026-05-04 11:46 40.50030 20.92841 37125 ft 483 kts 129°
2026-05-04 11:47 40.45388 20.99144 37116 ft 484 kts 134°
2026-05-04 11:47 40.40410 21.05116 37117 ft 485 kts 135°
2026-05-04 11:48 40.35390 21.11023 37122 ft 484 kts 135°
2026-05-04 11:48 40.30401 21.16962 37163 ft 485 kts 135°
2026-05-04 11:49 40.25422 21.22935 37144 ft 486 kts 135°
2026-05-04 11:49 40.20440 21.28917 37133 ft 486 kts 135°
2026-05-04 11:50 40.15414 21.34851 37121 ft 487 kts 136°
2026-05-04 11:50 40.10186 21.40486 37140 ft 488 kts 142°
2026-05-04 11:51 40.04633 21.45610 37132 ft 489 kts 144°
2026-05-04 11:51 39.99024 21.50646 37127 ft 490 kts 143°
2026-05-04 11:52 39.93433 21.55733 37119 ft 490 kts 143°
2026-05-04 11:52 39.87858 21.60856 37133 ft 491 kts 143°
2026-05-04 11:53 39.82278 21.65991 37126 ft 492 kts 143°
2026-05-04 11:53 39.76687 21.71127 37133 ft 492 kts 143°
2026-05-04 11:55 39.54290 21.91574 37133 ft 494 kts 143°
2026-05-04 11:56 39.48667 21.96681 37136 ft 494 kts 143°
2026-05-04 11:56 39.43041 22.01781 37135 ft 494 kts 143°
2026-05-04 11:57 39.37412 22.06873 37126 ft 494 kts 143°
2026-05-04 11:57 39.31777 22.11960 37139 ft 494 kts 143°
2026-05-04 11:58 39.26135 22.17044 37138 ft 495 kts 144°
2026-05-04 11:58 39.20490 22.22120 37144 ft 495 kts 144°
2026-05-04 11:59 39.14845 22.27186 37133 ft 494 kts 144°
2026-05-04 11:59 39.09196 22.32244 37134 ft 494 kts 144°
2026-05-04 12:00 39.03549 22.37292 37149 ft 494 kts 144°
2026-05-04 12:00 38.97900 22.42332 37136 ft 494 kts 144°
2026-05-04 12:01 38.92253 22.47360 37163 ft 494 kts 144°
2026-05-04 12:02 38.72432 22.64928 37140 ft 496 kts 144°
2026-05-04 12:03 38.66760 22.69934 37124 ft 497 kts 144°
2026-05-04 12:03 38.61066 22.74949 37136 ft 497 kts 144°
2026-05-04 12:04 38.55366 22.79959 37172 ft 498 kts 144°
2026-05-04 12:04 38.49650 22.84973 37157 ft 498 kts 144°
2026-05-04 12:05 38.43929 22.89983 37148 ft 499 kts 145°
2026-05-04 12:05 38.38202 22.94987 37151 ft 499 kts 145°
2026-05-04 12:06 38.32472 22.99985 37148 ft 499 kts 145°
2026-05-04 12:06 38.26743 23.04971 37136 ft 498 kts 145°
2026-05-04 12:07 38.21030 23.09934 37144 ft 497 kts 144°
2026-05-04 12:07 38.15316 23.14889 37150 ft 497 kts 145°
2026-05-04 12:08 38.09643 23.19798 37139 ft 497 kts 145°
2026-05-04 12:08 38.03936 23.24728 37141 ft 496 kts 145°
2026-05-04 12:09 37.98251 23.29629 37146 ft 496 kts 145°
2026-05-04 12:09 37.92537 23.34545 37155 ft 496 kts 145°
2026-05-04 12:10 37.86823 23.39453 37150 ft 496 kts 145°
2026-05-04 12:10 37.81149 23.44316 37156 ft 496 kts 146°
2026-05-04 12:11 37.75959 23.48757 37147 ft 497 kts 146°
2026-05-04 12:11 37.71568 23.52507 37148 ft 497 kts 146°
2026-05-04 12:12 37.67289 23.56156 37144 ft 497 kts 146°
2026-05-04 12:12 37.63009 23.59803 37144 ft 497 kts 146°
2026-05-04 12:14 37.40529 23.78870 35260 ft 476 kts 146°
2026-05-04 12:15 37.37785 23.81187 34857 ft 474 kts 146°
2026-05-04 12:15 37.35088 23.83463 34447 ft 473 kts 146°
2026-05-04 12:15 37.32357 23.85766 34038 ft 471 kts 146°
2026-05-04 12:15 37.29635 23.88058 33591 ft 469 kts 146°
2026-05-04 12:16 37.26933 23.90333 33194 ft 467 kts 146°
2026-05-04 12:16 37.24241 23.92597 32802 ft 464 kts 146°
2026-05-04 12:16 37.21789 23.94657 32453 ft 462 kts 146°
2026-05-04 12:16 37.19119 23.96898 32074 ft 460 kts 146°
2026-05-04 12:17 37.16463 23.99126 31699 ft 459 kts 146°
2026-05-04 12:17 37.13811 24.01348 31329 ft 457 kts 147°
2026-05-04 12:17 37.11165 24.03564 30950 ft 456 kts 147°
2026-05-04 12:17 37.08531 24.05767 30563 ft 455 kts 147°
2026-05-04 12:18 37.05901 24.07965 30213 ft 454 kts 147°
2026-05-04 12:18 37.03274 24.10159 29713 ft 453 kts 147°
2026-05-04 12:18 37.00657 24.12344 29312 ft 451 kts 147°
2026-05-04 12:18 36.98056 24.14513 28928 ft 448 kts 147°
2026-05-04 12:19 36.95469 24.16667 28534 ft 446 kts 147°
2026-05-04 12:19 36.92896 24.18809 28151 ft 443 kts 147°
2026-05-04 12:19 36.90335 24.20939 27773 ft 441 kts 147°
2026-05-04 12:19 36.87784 24.23059 27393 ft 439 kts 147°
2026-05-04 12:20 36.85244 24.25168 27013 ft 437 kts 147°
2026-05-04 12:20 36.82716 24.27266 26635 ft 435 kts 147°
2026-05-04 12:20 36.80198 24.29353 26262 ft 434 kts 147°
2026-05-04 12:20 36.78534 24.30731 26005 ft 433 kts 147°
2026-05-04 12:21 36.75214 24.33479 25456 ft 432 kts 147°
2026-05-04 12:21 36.72713 24.35547 25099 ft 431 kts 147°
2026-05-04 12:21 36.70209 24.37617 24693 ft 432 kts 147°
2026-05-04 12:21 36.67705 24.39685 24355 ft 431 kts 147°
2026-05-04 12:22 36.65204 24.41748 23964 ft 431 kts 147°
2026-05-04 12:22 36.63515 24.43140 23696 ft 430 kts 147°
2026-05-04 12:22 36.61022 24.45194 23259 ft 429 kts 147°
2026-05-04 12:22 36.58544 24.47235 22863 ft 426 kts 147°
2026-05-04 12:23 36.56082 24.49260 22476 ft 423 kts 147°
2026-05-04 12:23 36.53639 24.51269 22096 ft 419 kts 147°
2026-05-04 12:23 36.51219 24.53257 21738 ft 416 kts 147°
2026-05-04 12:23 36.48814 24.55231 21346 ft 413 kts 147°
2026-05-04 12:24 36.46423 24.57192 20978 ft 410 kts 147°
2026-05-04 12:24 36.44047 24.59139 20628 ft 407 kts 147°
2026-05-04 12:24 36.41689 24.61070 20276 ft 405 kts 147°
2026-05-04 12:24 36.39347 24.62987 19922 ft 402 kts 147°
2026-05-04 12:25 36.37020 24.64889 19566 ft 399 kts 147°
2026-05-04 12:25 36.34713 24.66775 19218 ft 396 kts 147°
2026-05-04 12:25 36.32416 24.68650 18789 ft 396 kts 147°
2026-05-04 12:25 36.30246 24.70421 18368 ft 396 kts 147°
2026-05-04 12:26 36.27952 24.72292 17953 ft 393 kts 146°
2026-05-04 12:26 36.25679 24.74144 17558 ft 389 kts 146°
2026-05-04 12:26 36.23431 24.75974 17203 ft 385 kts 146°
2026-05-04 12:26 36.21203 24.77787 16834 ft 382 kts 147°
2026-05-04 12:27 36.18993 24.79584 16486 ft 378 kts 147°
2026-05-04 12:27 36.16803 24.81364 16145 ft 375 kts 147°
2026-05-04 12:27 36.14628 24.83130 15812 ft 372 kts 147°
2026-05-04 12:27 36.12475 24.84878 15484 ft 369 kts 147°
2026-05-04 12:28 36.10338 24.86611 15149 ft 366 kts 147°
2026-05-04 12:28 36.08239 24.88311 14824 ft 364 kts 146°
2026-05-04 12:28 36.06101 24.90043 14489 ft 362 kts 146°
2026-05-04 12:28 36.04030 24.91719 14171 ft 360 kts 146°
2026-05-04 12:29 36.01942 24.93408 13828 ft 358 kts 146°
2026-05-04 12:29 35.99866 24.95086 13466 ft 355 kts 146°
2026-05-04 12:29 35.97807 24.96750 13124 ft 353 kts 146°
2026-05-04 12:29 35.95760 24.98403 12792 ft 350 kts 146°
2026-05-04 12:30 35.93727 25.00043 12468 ft 348 kts 146°
2026-05-04 12:30 35.91709 25.01670 12152 ft 345 kts 147°
2026-05-04 12:30 35.89705 25.03285 11829 ft 343 kts 147°
2026-05-04 12:30 35.87714 25.04888 11518 ft 341 kts 147°
2026-05-04 12:31 35.85732 25.06484 11206 ft 339 kts 147°
2026-05-04 12:31 35.83764 25.08066 10895 ft 337 kts 147°
2026-05-04 12:31 35.81804 25.09642 10585 ft 336 kts 147°
2026-05-04 12:31 35.79853 25.11210 10277 ft 334 kts 147°
2026-05-04 12:32 35.77914 25.12767 10042 ft 330 kts 147°
2026-05-04 12:32 35.74194 25.15751 9768 ft 305 kts 147°
2026-05-04 12:32 35.72404 25.17185 9262 ft 305 kts 147°
2026-05-04 12:33 35.70648 25.18593 8947 ft 299 kts 146°
2026-05-04 12:33 35.68924 25.19973 8646 ft 292 kts 146°
2026-05-04 12:33 35.67242 25.21319 8371 ft 285 kts 146°
2026-05-04 12:33 35.65593 25.22638 8115 ft 281 kts 146°
2026-05-04 12:34 35.63957 25.23946 7868 ft 280 kts 146°
2026-05-04 12:34 35.62327 25.25249 7612 ft 280 kts 146°
2026-05-04 12:34 35.60690 25.26557 7360 ft 280 kts 146°
2026-05-04 12:34 35.59058 25.27860 7103 ft 280 kts 146°
2026-05-04 12:35 35.57426 25.29163 6842 ft 280 kts 146°
2026-05-04 12:35 35.55792 25.30466 6584 ft 280 kts 146°
2026-05-04 12:35 35.54155 25.31771 6305 ft 281 kts 146°
2026-05-04 12:35 35.52524 25.33071 6164 ft 274 kts 147°
2026-05-04 12:36 35.50973 25.34307 6038 ft 258 kts 147°
2026-05-04 12:36 35.49510 25.35472 5825 ft 246 kts 147°
2026-05-04 12:36 35.48060 25.36626 5303 ft 250 kts 147°
2026-05-04 12:36 35.46597 25.37789 4754 ft 252 kts 148°
2026-05-04 12:37 35.45114 25.38965 4143 ft 255 kts 148°
2026-05-04 12:37 35.43605 25.40069 3628 ft 252 kts 152°
2026-05-04 12:37 35.42070 25.41111 3249 ft 250 kts 153°
2026-05-04 12:37 35.40571 25.42126 3021 ft 241 kts 153°
2026-05-04 12:38 35.39150 25.43095 2953 ft 226 kts 153°
2026-05-04 12:38 35.37757 25.43727 2930 ft 204 kts 182°
2026-05-04 12:38 35.36413 25.43367 2973 ft 197 kts 214°
2026-05-04 12:38 35.35374 25.42369 2903 ft 188 kts 238°
2026-05-04 12:39 35.34750 25.41030 2810 ft 181 kts 252°
2026-05-04 12:39 35.34210 25.39624 2630 ft 185 kts 251°
2026-05-04 12:39 35.33656 25.38188 2409 ft 187 kts 251°
2026-05-04 12:39 35.33114 25.36795 2286 ft 173 kts 251°
2026-05-04 12:40 35.32849 25.35477 2258 ft 154 kts 281°
2026-05-04 12:40 35.32934 25.34151 2231 ft 158 kts 278°
2026-05-04 12:40 35.32986 25.32841 2058 ft 150 kts 279°
2026-05-04 12:40 35.33054 25.31603 2028 ft 142 kts 280°
2026-05-04 12:41 35.33127 25.30435 1978 ft 134 kts 281°
2026-05-04 12:41 35.33204 25.29287 1938 ft 139 kts 281°
2026-05-04 12:41 35.33285 25.28097 1754 ft 140 kts 281°
2026-05-04 12:41 35.33362 25.26914 1515 ft 137 kts 282°
2026-05-04 12:42 35.33441 25.25757 1295 ft 138 kts 282°
2026-05-04 12:42 35.33532 25.24578 1152 ft 140 kts 281°
2026-05-04 12:42 35.33618 25.23397 960 ft 141 kts 279°
2026-05-04 12:42 35.33692 25.22198 731 ft 139 kts 279°
2026-05-04 12:43 35.33764 25.21075 471 ft 130 kts 281°
2026-05-04 12:43 35.33844 25.19933 302 ft 143 kts 278°
2026-05-04 12:43 35.33923 25.18741 98 ft 134 kts 279°
2026-05-04 12:43 35.33998 25.17725 95 ft 101 kts 274°
2026-05-04 12:44 35.34028 25.17213 92 ft 27 kts 265°
2026-05-04 12:44 35.33999 25.17116 91 ft 5 kts 246°
2026-05-04 12:44 35.33994 25.17101 91 ft 0 kts 247°
2026-05-04 12:44 35.33990 25.17090 90 ft 4 kts 246°
2026-05-04 12:45 35.33965 25.17054 90 ft 6 kts 195°
2026-05-04 12:45 35.33942 25.17096 91 ft 6 kts 104°
2026-05-04 12:45 35.33936 25.17156 89 ft 8 kts 97°
2026-05-04 12:45 35.33930 25.17235 90 ft 11 kts 95°
2026-05-04 12:46 35.33921 25.17368 90 ft 18 kts 94°
2026-05-04 12:46 35.33912 25.17518 92 ft 16 kts 95°
2026-05-04 12:46 35.33883 25.17623 93 ft 13 kts 158°
2026-05-04 12:46 35.33846 25.17583 93 ft 7 kts 282°
2026-05-04 12:47 35.33865 25.17553 90 ft 2 kts 312°
2026-05-04 12:47 35.33868 25.17549 91 ft 0 kts 312°